This is the latest recevied weather packets stored in our database for station/object KA1AL. If no packets are shown the sender has not sent any weather packets the latest 10 day(s).
| Time | Temp. | Humidity | Pressure | Rain* | Wind** | Luminosity | Snow |
|---|---|---|---|---|---|---|---|
| 1777900849 | 7.78° C | 68% | 1005.4 hPa | 0 mm | - | 232 W/m² | - |
| 1777900546 | 7.78° C | 68% | 1005.7 hPa | 0 mm | - | 195 W/m² | - |
| 1777900243 | 7.78° C | 67% | 1005.4 hPa | 0 mm | - | 192 W/m² | - |
| 1777899939 | 8.33° C | 66% | 1005.5 hPa | 0 mm | - | 521 W/m² | - |
| 1777899636 | 8.33° C | 65% | 1005.3 hPa | 0 mm | - | 266 W/m² | - |
| 1777899333 | 8.89° C | 65% | 1005.5 hPa | 0 mm | - | 444 W/m² | - |
| 1777899031 | 8.33° C | 65% | 1005.6 hPa | 0 mm | - | 544 W/m² | - |
| 1777898728 | 7.78° C | 66% | 1005.6 hPa | 0 mm | - | 441 W/m² | - |
| 1777898426 | 7.78° C | 65% | 1005.6 hPa | 0 mm | - | 403 W/m² | - |
| 1777898123 | 7.78° C | 66% | 1005.5 hPa | 0 mm | - | 386 W/m² | - |
| 1777897820 | 7.22° C | 66% | 1005.9 hPa | 0 mm | - | 360 W/m² | - |
| 1777897516 | 6.67° C | 65% | 1005.8 hPa | 0 mm | - | 338 W/m² | - |
| 1777897211 | 7.22° C | 66% | 1005.9 hPa | 0 mm | - | 326 W/m² | - |
| 1777896908 | 6.67° C | 65% | 1005.9 hPa | 0 mm | - | 311 W/m² | - |
| 1777896605 | 6.67° C | 66% | 1005.6 hPa | 0 mm | - | 308 W/m² | - |
| 1777896301 | 6.67° C | 67% | 1005.9 hPa | 0 mm | - | 286 W/m² | - |
| 1777896000 | 6.11° C | 68% | 1005.9 hPa | 0 mm | - | 183 W/m² | - |
| 1777895698 | 6.11° C | 68% | 1006.1 hPa | 0 mm | - | 134 W/m² | - |
| 1777895394 | 6.67° C | 66% | 1006.2 hPa | 0 mm | - | 239 W/m² | - |
| 1777895092 | 6.67° C | 69% | 1006 hPa | 0 mm | - | 194 W/m² | - |
| 1777894789 | 6.11° C | 69% | 1005.8 hPa | 0 mm | - | 178 W/m² | - |
| 1777894485 | 5.56° C | 69% | 1005.9 hPa | 0 mm | - | 140 W/m² | - |
| 1777894183 | 5° C | 71% | 1005.9 hPa | 0 mm | - | 97 W/m² | - |
| 1777893880 | 5° C | 70% | 1005.9 hPa | 0 mm | - | 58 W/m² | - |
| 1777893576 | 5.56° C | 70% | 1005.9 hPa | 0 mm | - | 83 W/m² | - |
* Rain latest hour (hover to see other rain measurements)
** Current wind speed in m/s (hover to see current wind gust speed)